ID,Period,size,start,end,GPS locations,monitoring days,,
P019,Before,11.7,10/12/2012,11/24/2012,345,43,,
P019,Before,13.2,11/24/2012,1/6/2013,339,43,,
P019,Before,24.3,1/6/2013,2/18/2013,339,43,,
P019,Before,32.6,2/18/2013,4/2/2013,342,43,,
P019,Before,22.9,4/2/2013,5/15/2013,340,43,,
P019,Before,59.1,5/15/2013,6/27/2013,332,43,,
P019,Before,46.6,6/27/2013,8/9/2013,335,43,,
P019,Before,33.0,8/9/2013,9/21/2013,342,43,,
P019,Before,13.1,9/21/2013,11/3/2013,337,43,,
P019,Before,31.2,3/12/2014,4/24/2014,347,43,,
P019,Before,22.7,4/24/2014,6/6/2014,349,43,,
P019,Before,33.6,6/6/2014,7/19/2014,350,43,,
P019,Before,50.2,7/19/2014,8/31/2014,340,43,,
P019,Before,73.9,8/31/2014,10/13/2014,350,43,,
P019,Before,80.9,11/25/2014,1/7/2015,343,43,,
P019,Before,38.6,1/7/2015,2/19/2015,340,43,,
P019,Before,94.3,2/19/2015,4/3/2015,344,43,,
P019,Before,42.5,4/3/2015,5/16/2015,344,43,,
P019,Before,41.2,5/16/2015,6/28/2015,330,43,,
P019,Before,99.1,6/28/2015,8/10/2015,335,43,,
P019,Before,66.3,8/10/2015,9/22/2015,323,43,,
P019,Before,74.2,9/22/2015,11/4/2015,342,43,,
P019,Before,29.3,11/4/2015,12/17/2015,293,43,,
P019,Before,65.2,1/26/2017,3/10/2017,341,43,,
P019,Before,43.2,3/10/2017,4/22/2017,342,43,,
P019,Before,41.4,4/22/2017,6/4/2017,331,43,,
P019,Before,28.4,6/4/2017,7/17/2017,333,43,,
P019,Before,66.1,7/17/2017,8/29/2017,335,43,,
P019,Before,68.5,8/29/2017,10/11/2017,337,43,,
P019,Before,64.7,10/11/2017,11/23/2017,347,43,,
P019,Before,59.5,11/23/2017,1/5/2018,343,43,,
P019,Before,43.0,1/5/2018,2/17/2018,346,43,,
P019,Before,44.6,2/17/2018,4/1/2018,338,43,,
P019,Before,38.1,4/1/2018,5/14/2018,341,43,,
P019,Before,30.7,5/14/2018,6/26/2018,341,43,,
P019,Before,34.6,11/2/2018,12/15/2018,349,43,,
P019,Before,77.6,12/15/2018,1/27/2019,350,43,,
P019,Before,35.2,1/27/2019,3/11/2019,350,43,,
P019,Before,53.3,3/11/2019,4/23/2019,346,43,,
P019,Before,42.1,4/23/2019,6/5/2019,335,43,,
P019,During,17.6,3/27/2020,5/9/2020,289,43,,
P022,Before,10.8,8/20/2012,10/2/2012,347,43,,
P022,Before,12.3,10/2/2012,11/14/2012,347,43,,
P022,Before,11.0,11/14/2012,12/27/2012,350,43,,
P022,Before,12.9,12/27/2012,2/8/2013,350,43,,
P022,Before,13.4,2/8/2013,3/23/2013,347,43,,
P022,Before,13.9,3/23/2013,5/5/2013,366,43,,
P022,Before,13.1,6/17/2013,7/30/2013,346,43,,
P022,Before,16.7,7/30/2013,9/11/2013,350,43,,
P022,Before,11.4,9/11/2013,10/24/2013,351,43,,
P022,Before,7.8,10/24/2013,12/6/2013,349,43,,
P022,Before,9.9,12/6/2013,1/18/2014,594,43,,
P022,Before,18.1,3/2/2014,4/14/2014,365,43,,
P022,Before,13.5,4/14/2014,5/27/2014,347,43,,
P022,Before,17.1,5/27/2014,7/9/2014,337,43,,
P022,Before,12.9,7/9/2014,8/21/2014,343,43,,
P022,Before,17.3,8/21/2014,10/3/2014,340,43,,
P022,Before,13.6,10/3/2014,11/15/2014,345,43,,
P022,Before,12.8,11/15/2014,12/28/2014,333,43,,
P022,Before,13.3,12/28/2014,2/9/2015,346,43,,
P022,Before,12.7,2/9/2015,3/24/2015,346,43,,
P022,Before,15.8,3/24/2015,5/6/2015,341,43,,
P022,Before,13.2,6/18/2015,7/31/2015,339,43,,
P022,Before,15.3,7/31/2015,9/12/2015,380,43,,
P022,Before,16.3,9/12/2015,10/25/2015,522,43,,
P022,Before,17.3,10/25/2015,12/7/2015,528,43,,
P022,Before,16.1,12/7/2015,1/19/2016,391,43,,
P022,Before,15.5,1/19/2016,3/2/2016,359,43,,
P022,Before,18.0,3/2/2016,4/14/2016,376,43,,
P022,Before,11.5,4/14/2016,5/27/2016,355,43,,
P022,Before,12.8,5/27/2016,7/9/2016,409,43,,
P022,Before,13.4,7/9/2016,8/21/2016,378,43,,
P022,Before,10.9,8/21/2016,10/3/2016,362,43,,
P022,Before,15.2,10/3/2016,11/15/2016,361,43,,
P022,Before,16.3,11/15/2016,12/28/2016,447,43,,
P022,Before,13.0,12/28/2016,2/9/2017,527,43,,
P022,Before,15.6,2/9/2017,3/24/2017,412,43,,
P022,Before,15.7,3/24/2017,5/6/2017,385,43,,
P022,Before,11.6,5/6/2017,6/18/2017,375,43,,
P022,Before,11.8,6/18/2017,7/31/2017,361,43,,
P022,Before,15.5,7/31/2017,9/12/2017,343,43,,
P022,Before,17.2,9/12/2017,10/25/2017,345,43,,
P022,Before,14.3,10/25/2017,12/7/2017,631,43,,
P022,Before,13.7,12/7/2017,1/19/2018,697,43,,
P022,Before,13.8,1/19/2018,3/3/2018,691,43,,
P022,Before,17.1,3/3/2018,4/15/2018,723,43,,
P022,Before,11.5,4/15/2018,5/28/2018,715,43,,
P022,Before,13.1,7/10/2018,8/22/2018,626,43,,
P022,Before,11.4,4/24/2019,6/6/2019,340,43,,
P022,Before,9.1,6/6/2019,7/19/2019,321,43,,
P022,Before,10.4,7/19/2019,8/31/2019,315,43,,
P022,Before,8.9,8/31/2019,10/13/2019,333,43,,
P022,Before,14.2,10/13/2019,11/25/2019,328,43,,
P022,Before,13.3,11/25/2019,1/7/2020,342,43,,
P022,Before,15.5,1/7/2020,2/19/2020,348,43,,
P022,During,9.9,3/27/2020,5/9/2020,334,43,,
P054,Before,16.6,3/20/2019,4/18/2019,189,29,,
P054,Before,13.0,4/18/2019,5/17/2019,163,29,,
P054,Before,17.6,5/17/2019,6/15/2019,167,29,,
P054,Before,23.9,6/15/2019,7/14/2019,148,29,,
P054,Before,46.0,7/14/2019,8/12/2019,161,29,,
P054,Before,67.1,8/12/2019,9/10/2019,171,29,,
P054,Before,71.7,9/10/2019,10/9/2019,164,29,,
P054,Before,31.2,10/9/2019,11/7/2019,171,29,,
P054,Before,56.2,11/7/2019,12/6/2019,167,29,,
P054,Before,22.6,12/6/2019,1/4/2020,183,29,,
P054,Before,25.9,1/4/2020,2/2/2020,174,29,,
P054,Before,30.5,2/2/2020,3/2/2020,150,29,,
P054,During,5.2,3/27/2020,5/9/2020,193,43,,
P062,Before,53.7,1/18/2018,3/2/2018,155,43,,
P062,Before,18.3,3/2/2018,4/14/2018,144,43,,
P062,Before,31.1,7/12/2019,8/24/2019,162,43,,
P062,Before,35.4,8/24/2019,10/6/2019,173,43,,
P062,Before,48.8,10/6/2019,11/18/2019,172,43,,
P062,Before,45.8,11/18/2019,12/31/2019,171,43,,
P062,Before,48.7,12/31/2019,2/12/2020,157,43,,
P062,During,30.7,3/27/2020,5/9/2020,133,43,,
,,,,,,,,
,,,,,,,,
,,,,,,,,
,,,,,,,,
,,,,,,,,
,,,,,,,,
,,,,,,,,
,,,,,,,,
,,,,,,,,
,,,,,,,,
,,,,,,,,
,,,,,,,,
,,,,,,,,
,,,,,,,,
,,,,,,,,
